Weather History for KHOT - March, 2013

Change the Weather History Date:

Tuesday, March 19, 2013

  Actual Average Record
Temperature  
Mean Temperature 48 °F -  
Max Temperature 62 °F 68 °F 83 °F (1982)
Min Temperature 36 °F 42 °F 20 °F (1965)
Degree Days  
Heating Degree Days 17    
Moisture  
Dew Point 30 °F    
Average Humidity 54    
Maximum Humidity 93    
Minimum Humidity 26    
Precipitation  
Precipitation 0.00 in - - ()
Sea Level Pressure  
Sea Level Pressure 30.12 in    
Wind  
Wind Speed 4 mph (East)    
Max Wind Speed 13 mph    
Max Gust Speed 18 mph    
Visibility 10 miles    
Events      
Averages and records for this station are not official NWS values.
T = Trace of Precipitation, MM = Missing Value Source: NWS Daily Summary

Daily Weather History Graph

Daily Weather History Graph

Search for Another Location

Airport or City:

Trip Planner

Search our weather history database for the weather conditions in past years. The results will help you decide how hot, cold, wet, or windy it might be!

Date:

Astronomy

Mar. 19, 2013 Rise Set
Actual Time 7:17 AM CDT 7:23 PM CDT
Civil Twilight 6:51 AM CDT 7:48 PM CDT
Nautical Twilight 6:22 AM CDT 8:17 PM CDT
Astronomical Twilight 5:53 AM CDT 8:47 PM CDT
Moon 12:21 PM CDT (3/19) 1:57 AM CDT (3/19)
Length of Visible Light 12h 56m
Length of Day
12h 06m
Waxing Crescent, 50% of the Moon is Illuminated
Mar 19
Waxing Crescent
Mar 19
First Quarter
Mar 27
Full
Apr 2
Last Quarter
Apr 10
New

Hourly Weather History & Observations

Time (CDT) Temp. Windchill Dew Point Humidity Pressure Visibility Wind Dir Wind Speed Gust Speed Precip Events Conditions
12:53 AM 48.0 °F - 37.0 °F 66% 30.06 in 10.0 mi ENE 3.5 mph - N/A   Clear
1:53 AM 45.0 °F - 36.0 °F 71% 30.06 in 10.0 mi Calm Calm - N/A   Clear
2:53 AM 41.0 °F 39.0 °F 36.0 °F 82% 30.06 in 10.0 mi South 3.5 mph - N/A   Clear
3:53 AM 37.9 °F - 35.1 °F 89% 30.04 in 10.0 mi Calm Calm - N/A   Clear
4:53 AM 37.9 °F - 35.1 °F 89% 30.05 in 10.0 mi Calm Calm - N/A   Clear
5:53 AM 36.0 °F - 34.0 °F 93% 30.07 in 10.0 mi Calm Calm - N/A   Clear
6:53 AM 36.0 °F - 34.0 °F 93% 30.09 in 10.0 mi Calm Calm - N/A   Clear
7:53 AM 36.0 °F - 34.0 °F 93% 30.11 in 10.0 mi Calm Calm - N/A   Clear
8:53 AM 42.1 °F 40.2 °F 37.9 °F 85% 30.15 in 10.0 mi WNW 3.5 mph - N/A   Clear
9:53 AM 48.9 °F - 39.0 °F 69% 30.19 in 10.0 mi Calm Calm - N/A   Clear
10:53 AM 53.1 °F - 35.1 °F 50% 30.18 in 10.0 mi East 9.2 mph - N/A   Clear
11:53 AM 55.9 °F - 35.1 °F 45% 30.19 in 10.0 mi SE 10.4 mph - N/A   Clear
12:53 PM 57.9 °F - 30.0 °F 35% 30.18 in 10.0 mi East 8.1 mph - N/A   Clear
1:53 PM 59.0 °F - 28.0 °F 31% 30.14 in 10.0 mi ESE 10.4 mph - N/A   Clear
2:53 PM 60.1 °F - 28.0 °F 30% 30.11 in 10.0 mi East 12.7 mph 18.4 mph N/A   Clear
3:53 PM 60.1 °F - 27.0 °F 28% 30.10 in 10.0 mi ESE 8.1 mph - N/A   Clear
4:53 PM 60.1 °F - 25.0 °F 26% 30.10 in 10.0 mi East 9.2 mph - N/A   Clear
5:53 PM 59.0 °F - 25.0 °F 27% 30.11 in 10.0 mi ENE 10.4 mph - N/A   Clear
6:53 PM 55.9 °F - 24.1 °F 29% 30.12 in 10.0 mi East 9.2 mph - N/A   Clear
7:53 PM 53.1 °F - 21.9 °F 30% 30.12 in 10.0 mi East 6.9 mph - N/A   Clear
8:53 PM 51.1 °F - 21.9 °F 32% 30.15 in 10.0 mi East 6.9 mph - N/A   Clear
9:53 PM 50.0 °F - 24.1 °F 36% 30.17 in 10.0 mi East 5.8 mph - N/A   Clear
10:53 PM 50.0 °F - 23.0 °F 35% 30.17 in 10.0 mi East 6.9 mph - N/A   Clear
11:53 PM 48.0 °F - 23.0 °F 37% 30.19 in 10.0 mi East 4.6 mph - N/A   Clear